| time (UTC) | temp F | wind direction | speed knots | gust knots | rain 1hr in | rain 24hr in | rain mn in | humidity % | barometer mb |
| 20260504193540 | 56 | 30 | 2.6 | 2.6 | 0.00 | 0.00 | 0.00 | 46 | 1017.9 |
| 20260504193039 | 55 | 144 | 2.6 | 2.6 | 0.00 | 0.00 | 0.00 | 45 | 1017.7 |
| 20260504192537 | 55 | 148 | 4.3 | 4.3 | 0.00 | 0.00 | 0.00 | 45 | 1017.8 |
| 20260504192035 | 56 | 71 | 0.9 | 2.6 | 0.00 | 0.00 | 0.00 | 46 | 1017.9 |
| 20260504191533 | 57 | 207 | 1.7 | 1.7 | 0.00 | 0.00 | 0.00 | 44 | 1017.9 |
| 20260504191028 | 56 | 166 | 1.7 | 1.7 | 0.00 | 0.00 | 0.00 | 46 | 1017.8 |
| 20260504190525 | 54 | 178 | 1.7 | 1.7 | 0.00 | 0.00 | 0.00 | 46 | 1018.0 |
| 20260504190021 | 54 | 115 | 4.3 | 5.2 | 0.00 | 0.00 | 0.00 | 46 | 1017.9 |
| 20260504185518 | 55 | 130 | 5.2 | 7.8 | 0.00 | 0.00 | 0.00 | 47 | 1018.3 |
| 20260504185015 | 56 | 233 | 3.5 | 4.3 | 0.00 | 0.00 | 0.00 | 45 | 1017.9 |
| 20260504184510 | 55 | 44 | 0.9 | 1.7 | 0.00 | 0.00 | 0.00 | 43 | 1018.3 |
| 20260504184006 | 55 | 272 | 2.6 | 2.6 | 0.00 | 0.00 | 0.00 | 46 | 1017.8 |
| 20260504183503 | 54 | 38 | 5.2 | 6.1 | 0.00 | 0.00 | 0.00 | 45 | 1017.8 |
| 20260504183001 | 55 | 265 | 5.2 | 6.1 | 0.00 | 0.00 | 0.00 | 45 | 1018.2 |
| 20260504182457 | 56 | 345 | 2.6 | 2.6 | 0.00 | 0.00 | 0.00 | 41 | 1017.9 |
| 20260504181955 | 56 | 335 | 2.6 | 2.6 | 0.00 | 0.00 | 0.00 | 39 | 1017.8 |
| 20260504181452 | 57 | 251 | 1.7 | 1.7 | 0.00 | 0.00 | 0.00 | 38 | 1017.7 |
| 20260504180951 | 57 | 192 | 2.6 | 2.6 | 0.00 | 0.00 | 0.00 | 38 | 1017.8 |
| 20260504180449 | 57 | 223 | 0.9 | 0.9 | 0.00 | 0.00 | 0.00 | 37 | 1017.7 |
| 20260504175947 | 57 | 54 | 2.6 | 4.3 | 0.00 | 0.00 | 0.00 | 37 | 1017.7 |
| 20260504175444 | 58 | 277 | 3.5 | 4.3 | 0.00 | 0.00 | 0.00 | 37 | 1017.3 |
| 20260504174941 | 58 | 225 | 0.0 | 0.0 | 0.00 | 0.00 | 0.00 | 37 | 1017.7 |
| 20260504174439 | 58 | 30 | 2.6 | 2.6 | 0.00 | 0.00 | 0.00 | 36 | 1017.4 |
| 20260504173936 | 59 | 176 | 2.6 | 2.6 | 0.00 | 0.00 | 0.00 | 36 | 1017.7 |
| 20260504173432 | 59 | 0 | 3.5 | 4.3 | 0.00 | 0.00 | 0.00 | 36 | 1017.4 |
| 20260504172930 | 60 | 76 | 2.6 | 6.1 | 0.00 | 0.00 | 0.00 | 36 | 1017.8 |
| 20260504172426 | 60 | 215 | 1.7 | 2.6 | 0.00 | 0.00 | 0.00 | 35 | 1017.9 |
| 20260504171922 | 61 | 244 | 1.7 | 2.6 | 0.00 | 0.00 | 0.00 | 33 | 1017.7 |
| 20260504171420 | 61 | 315 | 4.3 | 5.2 | 0.00 | 0.00 | 0.00 | 33 | 1017.9 |
| 20260504170917 | 61 | 30 | 0.0 | 0.9 | 0.00 | 0.00 | 0.00 | 33 | 1018.2 |
| 20260504170413 | 59 | 161 | 0.0 | 0.0 | 0.00 | 0.00 | 0.00 | 35 | 1017.9 |
| 20260504160332 | 59 | 308 | 1.7 | 2.6 | 0.00 | 0.00 | 0.00 | 39 | 1018.9 |
| 20260504150756 | 54 | 160 | 2.6 | 2.6 | 0.00 | 0.00 | 0.00 | 41 | 1019.3 |
| 20260504150253 | 53 | 253 | 3.5 | 6.1 | 0.00 | 0.00 | 0.00 | 41 | 1019.4 |
| 20260504141223 | 46 | 219 | 0.0 | 0.0 | 0.00 | 0.00 | 0.00 | 59 | 1019.4 |
| 20260504140720 | 44 | 210 | 0.0 | 0.0 | 0.00 | 0.00 | 0.00 | 56 | 1019.4 |
| 20260504140215 | 43 | 196 | 0.9 | 0.9 | 0.00 | 0.00 | 0.00 | 59 | 1019.4 |
| 20260504130643 | 39 | 218 | 0.0 | 0.0 | 0.00 | 0.00 | 0.00 | 59 | 1019.2 |
| 20260504130140 | 38 | 224 | 0.0 | 0.0 | 0.00 | 0.00 | 0.00 | 60 | 1019.0 |
| 20260504120104 | 36 | 214 | 0.0 | 0.0 | 0.00 | 0.00 | 0.00 | 62 | 1018.5 |
| 20260504110531 | 36 | 208 | 0.0 | 0.0 | 0.00 | 0.00 | 0.00 | 60 | 1019.0 |
| 20260504100448 | 37 | 214 | 0.0 | 0.0 | 0.00 | 0.00 | 0.00 | 59 | 1019.4 |
| 20260504081841 | 39 | 189 | 0.9 | 0.9 | 0.00 | 0.00 | 0.00 | 53 | 1019.8 |
| 20260504081337 | 39 | 204 | 0.0 | 0.0 | 0.00 | 0.00 | 0.00 | 54 | 1019.9 |
| 20260504080833 | 39 | 181 | 0.9 | 0.9 | 0.00 | 0.00 | 0.00 | 55 | 1020.1 |
| 20260504080331 | 39 | 185 | 0.9 | 0.9 | 0.00 | 0.00 | 0.00 | 55 | 1020.3 |
| 20260504070258 | 41 | 199 | 0.0 | 0.0 | 0.00 | 0.00 | 0.00 | 52 | 1020.7 |
| 20260504060219 | 42 | 229 | 0.0 | 0.0 | 0.00 | 0.00 | 0.00 | 55 | 1020.9 |
| 20260504050646 | 43 | 195 | 0.0 | 0.0 | 0.00 | 0.00 | 0.00 | 54 | 1021.6 |
| 20260504050143 | 43 | 195 | 0.9 | 0.9 | 0.00 | 0.00 | 0.00 | 54 | 1021.1 |
| 20260504045640 | 43 | 176 | 0.0 | 0.9 | 0.00 | 0.00 | 0.00 | 54 | 1021.6 |
| 20260504045140 | 44 | 208 | 0.0 | 0.0 | 0.00 | 0.00 | 0.00 | 53 | 1021.3 |
| 20260504044638 | 44 | 204 | 0.0 | 0.0 | 0.00 | 0.00 | 0.00 | 54 | 1021.4 |
| 20260504044135 | 44 | 202 | 0.0 | 0.9 | 0.00 | 0.00 | 0.00 | 52 | 1021.6 |
| 20260504043632 | 44 | 207 | 0.0 | 0.0 | 0.00 | 0.00 | 0.00 | 52 | 1021.8 |
| 20260504043129 | 45 | 208 | 0.0 | 0.0 | 0.00 | 0.00 | 0.00 | 51 | 1021.4 |
| 20260504042626 | 45 | 188 | 0.9 | 0.9 | 0.00 | 0.00 | 0.00 | 51 | 1021.7 |
| 20260504042123 | 45 | 203 | 0.0 | 0.0 | 0.00 | 0.00 | 0.00 | 52 | 1021.7 |
| 20260504041619 | 46 | 220 | 0.0 | 0.0 | 0.00 | 0.00 | 0.00 | 51 | 1022.0 |
| 20260504041115 | 46 | 203 | 0.0 | 0.0 | 0.00 | 0.00 | 0.00 | 51 | 1021.8 |
| 20260504040613 | 45 | 198 | 0.0 | 0.9 | 0.00 | 0.00 | 0.00 | 51 | 1022.0 |
| 20260504040109 | 45 | 226 | 0.0 | 0.9 | 0.00 | 0.00 | 0.00 | 52 | 1021.7 |
| 20260504035606 | 46 | 200 | 0.9 | 0.9 | 0.00 | 0.00 | 0.00 | 52 | 1021.7 |
| 20260504035102 | 46 | 215 | 0.0 | 0.0 | 0.00 | 0.00 | 0.00 | 52 | 1021.8 |
| 20260504034601 | 46 | 179 | 1.7 | 1.7 | 0.00 | 0.00 | 0.00 | 52 | 1022.1 |
| 20260504034057 | 47 | 231 | 0.0 | 0.0 | 0.00 | 0.00 | 0.00 | 51 | 1022.0 |
| 20260504033555 | 47 | 222 | 0.0 | 0.0 | 0.00 | 0.00 | 0.00 | 50 | 1021.8 |
| 20260504033052 | 48 | 198 | 0.0 | 0.0 | 0.00 | 0.00 | 0.00 | 48 | 1021.8 |
| 20260504032549 | 47 | 186 | 0.9 | 0.9 | 0.00 | 0.00 | 0.00 | 48 | 1021.8 |
| 20260504032046 | 48 | 190 | 0.9 | 0.9 | 0.00 | 0.00 | 0.00 | 49 | 1021.8 |
| 20260504031543 | 49 | 211 | 0.0 | 0.0 | 0.00 | 0.00 | 0.00 | 47 | 1021.3 |
| 20260504031039 | 49 | 183 | 1.7 | 1.7 | 0.00 | 0.00 | 0.00 | 47 | 1022.0 |
| 20260504030537 | 48 | 199 | 0.9 | 0.9 | 0.00 | 0.00 | 0.00 | 48 | 1022.0 |
| 20260504030032 | 48 | 207 | 0.0 | 0.0 | 0.00 | 0.00 | 0.00 | 47 | 1021.8 |
| 20260504025530 | 49 | 205 | 0.0 | 0.0 | 0.00 | 0.00 | 0.00 | 48 | 1022.0 |
| 20260504025026 | 49 | 224 | 0.0 | 0.0 | 0.00 | 0.00 | 0.00 | 46 | 1021.8 |
| 20260504024523 | 49 | 176 | 1.7 | 1.7 | 0.00 | 0.00 | 0.00 | 46 | 1021.7 |
| 20260504024020 | 49 | 210 | 0.0 | 0.0 | 0.00 | 0.00 | 0.00 | 47 | 1021.7 |
| 20260504023517 | 50 | 209 | 0.9 | 0.9 | 0.00 | 0.00 | 0.00 | 48 | 1021.4 |
| 20260504023013 | 50 | 152 | 1.7 | 1.7 | 0.00 | 0.00 | 0.00 | 43 | 1021.8 |
| 20260504022509 | 50 | 197 | 0.0 | 0.9 | 0.00 | 0.00 | 0.00 | 44 | 1022.0 |
| 20260504022005 | 50 | 169 | 1.7 | 1.7 | 0.00 | 0.00 | 0.00 | 44 | 1021.7 |
| 20260504021503 | 51 | 220 | 0.0 | 0.0 | 0.00 | 0.00 | 0.00 | 45 | 1021.6 |
| 20260504021000 | 51 | 207 | 0.0 | 0.0 | 0.00 | 0.00 | 0.00 | 41 | 1021.8 |
| 20260504020456 | 52 | 214 | 0.0 | 0.0 | 0.00 | 0.00 | 0.00 | 42 | 1021.4 |
| 20260504015953 | 53 | 220 | 0.0 | 0.0 | 0.00 | 0.00 | 0.00 | 40 | 1021.6 |
| 20260504015449 | 53 | 204 | 0.0 | 0.0 | 0.00 | 0.00 | 0.00 | 39 | 1021.7 |
| 20260504014945 | 54 | 204 | 0.0 | 0.0 | 0.00 | 0.00 | 0.00 | 39 | 1021.4 |
| 20260504014441 | 54 | 209 | 0.0 | 0.0 | 0.00 | 0.00 | 0.00 | 39 | 1021.4 |
| 20260504013938 | 55 | 214 | 0.0 | 0.0 | 0.00 | 0.00 | 0.00 | 38 | 1021.3 |
| 20260504013437 | 55 | 208 | 0.0 | 0.0 | 0.00 | 0.00 | 0.00 | 37 | 1021.4 |
| 20260504012932 | 56 | 252 | 0.9 | 0.9 | 0.00 | 0.00 | 0.00 | 37 | 1021.1 |
| 20260504012431 | 56 | 281 | 2.6 | 5.2 | 0.00 | 0.00 | 0.00 | 36 | 1021.4 |
| 20260504011928 | 56 | 166 | 2.6 | 2.6 | 0.00 | 0.00 | 0.00 | 36 | 1021.1 |
| 20260504011425 | 57 | 218 | 0.0 | 0.0 | 0.00 | 0.00 | 0.00 | 35 | 1020.9 |
| 20260504010920 | 57 | 347 | 0.9 | 1.7 | 0.00 | 0.00 | 0.00 | 35 | 1020.9 |
| 20260504010417 | 57 | 224 | 0.9 | 1.7 | 0.00 | 0.00 | 0.00 | 35 | 1021.2 |
| 20260504005913 | 57 | 342 | 4.3 | 5.2 | 0.00 | 0.00 | 0.00 | 34 | 1020.9 |
| 20260504005410 | 57 | 307 | 1.7 | 1.7 | 0.00 | 0.00 | 0.00 | 34 | 1021.2 |
| 20260504004908 | 58 | 29 | 3.5 | 5.2 | 0.00 | 0.00 | 0.00 | 33 | 1021.3 |
| 20260504004405 | 58 | 274 | 1.7 | 1.7 | 0.00 | 0.00 | 0.00 | 33 | 1021.1 |
| 20260504003902 | 58 | 16 | 2.6 | 2.6 | 0.00 | 0.00 | 0.00 | 33 | 1021.2 |
| 20260504003358 | 59 | 356 | 1.7 | 2.6 | 0.00 | 0.00 | 0.00 | 32 | 1021.1 |
| 20260504002855 | 60 | 352 | 2.6 | 2.6 | 0.00 | 0.00 | 0.00 | 30 | 1021.1 |
| 20260504002352 | 60 | 231 | 0.0 | 0.0 | 0.00 | 0.00 | 0.00 | 30 | 1021.2 |
| 20260504001849 | 60 | 216 | 0.0 | 0.9 | 0.00 | 0.00 | 0.00 | 30 | 1021.1 |
| 20260504001347 | 59 | 237 | 0.9 | 1.7 | 0.00 | 0.00 | 0.00 | 31 | 1020.8 |
| 20260504000843 | 58 | 239 | 0.0 | 0.0 | 0.00 | 0.00 | 0.00 | 32 | 1021.1 |
| 20260504000341 | 59 | 117 | 9.6 | 12.2 | 0.00 | 0.00 | 0.00 | 31 | 1020.9 |
| 20260503235838 | 59 | 234 | 0.9 | 1.7 | 0.00 | 0.00 | 0.00 | 30 | 1021.1 |
| 20260503235335 | 60 | 132 | 2.6 | 4.3 | 0.00 | 0.00 | 0.00 | 29 | 1021.2 |
| 20260503234833 | 60 | 244 | 1.7 | 2.6 | 0.00 | 0.00 | 0.00 | 29 | 1021.1 |
| 20260503234330 | 60 | 232 | 2.6 | 2.6 | 0.00 | 0.00 | 0.00 | 28 | 1020.8 |
| 20260503233828 | 60 | 246 | 3.5 | 4.3 | 0.00 | 0.00 | 0.00 | 24 | 1020.8 |
| 20260503233323 | 60 | 225 | 0.9 | 0.9 | 0.00 | 0.00 | 0.00 | 29 | 1020.9 |
| 20260503232820 | 60 | 58 | 4.3 | 7.0 | 0.00 | 0.00 | 0.00 | 26 | 1020.4 |
| 20260503232318 | 61 | 148 | 1.7 | 2.6 | 0.00 | 0.00 | 0.00 | 25 | 1020.4 |
| 20260503231816 | 60 | 196 | 0.9 | 1.7 | 0.00 | 0.00 | 0.00 | 26 | 1020.7 |
| 20260503231312 | 61 | 226 | 0.0 | 0.0 | 0.00 | 0.00 | 0.00 | 26 | 1020.8 |
| 20260503230808 | 61 | 201 | 0.9 | 1.7 | 0.00 | 0.00 | 0.00 | 28 | 1020.8 |
| 20260503230306 | 61 | 229 | 0.0 | 0.9 | 0.00 | 0.00 | 0.00 | 26 | 1020.7 |
| 20260503225803 | 60 | 248 | 1.7 | 1.7 | 0.00 | 0.00 | 0.00 | 27 | 1021.1 |
| 20260503225258 | 60 | 245 | 0.9 | 1.7 | 0.00 | 0.00 | 0.00 | 26 | 1020.7 |
| 20260503224755 | 60 | 238 | 2.6 | 2.6 | 0.00 | 0.00 | 0.00 | 28 | 1020.9 |
| 20260503224253 | 61 | 225 | 0.9 | 0.9 | 0.00 | 0.00 | 0.00 | 27 | 1020.8 |
| 20260503223750 | 60 | 226 | 1.7 | 1.7 | 0.00 | 0.00 | 0.00 | 28 | 1020.8 |
| 20260503223248 | 60 | 236 | 1.7 | 1.7 | 0.00 | 0.00 | 0.00 | 28 | 1021.1 |
| 20260503222743 | 60 | 217 | 0.9 | 0.9 | 0.00 | 0.00 | 0.00 | 27 | 1021.1 |
| 20260503222242 | 60 | 219 | 2.6 | 2.6 | 0.00 | 0.00 | 0.00 | 27 | 1020.9 |
| 20260503221740 | 60 | 38 | 3.5 | 5.2 | 0.00 | 0.00 | 0.00 | 26 | 1021.1 |
| 20260503221237 | 60 | 252 | 4.3 | 5.2 | 0.00 | 0.00 | 0.00 | 27 | 1021.4 |
| 20260503220734 | 61 | 304 | 5.2 | 6.1 | 0.00 | 0.00 | 0.00 | 27 | 1021.4 |
| 20260503220231 | 60 | 33 | 4.3 | 5.2 | 0.00 | 0.00 | 0.00 | 27 | 1021.4 |
| 20260503215727 | 60 | 233 | 1.7 | 1.7 | 0.00 | 0.00 | 0.00 | 27 | 1021.4 |
| 20260503215224 | 60 | 305 | 4.3 | 5.2 | 0.00 | 0.00 | 0.00 | 26 | 1021.7 |
| 20260503214722 | 60 | 242 | 5.2 | 6.1 | 0.00 | 0.00 | 0.00 | 26 | 1021.7 |
| 20260503214219 | 60 | 349 | 7.8 | 9.6 | 0.00 | 0.00 | 0.00 | 25 | 1022.0 |
| 20260503213717 | 60 | 264 | 6.1 | 7.0 | 0.00 | 0.00 | 0.00 | 25 | 1021.7 |
| 20260503213213 | 61 | 228 | 1.7 | 2.6 | 0.00 | 0.00 | 0.00 | 24 | 1021.7 |
| 20260503212711 | 61 | 233 | 0.9 | 0.9 | 0.00 | 0.00 | 0.00 | 25 | 1022.0 |
| 20260503212208 | 61 | 21 | 5.2 | 6.1 | 0.00 | 0.00 | 0.00 | 23 | 1021.8 |
| 20260503211706 | 61 | 316 | 3.5 | 4.3 | 0.00 | 0.00 | 0.00 | 24 | 1021.8 |
| 20260503211202 | 62 | 229 | 6.1 | 7.0 | 0.00 | 0.00 | 0.00 | 25 | 1022.0 |
| 20260503210658 | 62 | 233 | 5.2 | 7.0 | 0.00 | 0.00 | 0.00 | 24 | 1022.3 |
| 20260503210155 | 61 | 318 | 3.5 | 4.3 | 0.00 | 0.00 | 0.00 | 24 | 1022.5 |
| 20260503205650 | 61 | 331 | 2.6 | 2.6 | 0.00 | 0.00 | 0.00 | 24 | 1022.3 |
| 20260503205146 | 61 | 287 | 3.5 | 5.2 | 0.00 | 0.00 | 0.00 | 24 | 1022.3 |
| 20260503204643 | 61 | 229 | 2.6 | 2.6 | 0.00 | 0.00 | 0.00 | 24 | 1022.5 |
| 20260503204141 | 60 | 238 | 3.5 | 4.3 | 0.00 | 0.00 | 0.00 | 24 | 1022.3 |
| 20260503203638 | 61 | 359 | 4.3 | 7.0 | 0.00 | 0.00 | 0.00 | 23 | 1022.5 |
| 20260503203135 | 62 | 354 | 7.8 | 8.7 | 0.00 | 0.00 | 0.00 | 23 | 1022.5 |
| 20260503202632 | 62 | 270 | 3.5 | 4.3 | 0.00 | 0.00 | 0.00 | 22 | 1022.6 |
| 20260503202130 | 61 | 274 | 1.7 | 1.7 | 0.00 | 0.00 | 0.00 | 23 | 1022.7 |
| 20260503201628 | 61 | 227 | 4.3 | 5.2 | 0.00 | 0.00 | 0.00 | 24 | 1022.6 |
| 20260503201125 | 62 | 32 | 3.5 | 5.2 | 0.00 | 0.00 | 0.00 | 23 | 1022.8 |
| 20260503200622 | 62 | 220 | 7.0 | 8.7 | 0.00 | 0.00 | 0.00 | 23 | 1022.7 |
| 20260503200118 | 64 | 10 | 6.1 | 7.8 | 0.00 | 0.00 | 0.00 | 23 | 1022.8 |
| 20260503195615 | 64 | 235 | 3.5 | 4.3 | 0.00 | 0.00 | 0.00 | 23 | 1022.7 |
| 20260503195111 | 63 | 242 | 3.5 | 4.3 | 0.00 | 0.00 | 0.00 | 23 | 1022.6 |
| 20260503194609 | 63 | 105 | 0.9 | 1.7 | 0.00 | 0.00 | 0.00 | 23 | 1023.0 |
| 20260503194103 | 62 | 251 | 0.9 | 0.9 | 0.00 | 0.00 | 0.00 | 25 | 1023.1 |